This is the latest recevied weather packets stored in our database for station/object VR2OT-10. If no packets are shown the sender has not sent any weather packets the latest 10 day(s).
| Time | Temp. | Humidity | Pressure | Rain* | Wind** | Luminosity | Snow |
|---|---|---|---|---|---|---|---|
| 1788099931 | 27.78° C | 83% | 999.7 hPa | - | 2.68 m/s, 315° | - | - |
| 1788099034 | 27.78° C | 83% | 999.7 hPa | - | 0.89 m/s, 315° | - | - |
| 1788098133 | 27.78° C | 84% | 999.8 hPa | - | 1.34 m/s, 90° | - | - |
| 1788097231 | 27.22° C | 84% | 999.8 hPa | - | 0.45 m/s, 315° | - | - |
| 1788096333 | 27.22° C | 86% | 999.7 hPa | - | 1.79 m/s, 315° | - | - |
| 1788095434 | 27.22° C | 87% | 999.6 hPa | - | 1.79 m/s, 315° | - | - |
| 1788094532 | 27.22° C | 82% | 999.5 hPa | - | 1.79 m/s, 315° | - | - |
| 1788093633 | 27.22° C | 80% | 999.6 hPa | - | 0.45 m/s, 270° | - | - |
| 1788092732 | 27.78° C | 77% | 999.4 hPa | - | 0 m/s | - | - |
| 1788091831 | 27.78° C | 79% | 999.5 hPa | - | 0 m/s | - | - |
| 1788090034 | 27.78° C | 75% | 999 hPa | - | 0 m/s | - | - |
| 1788089132 | 27.22° C | 75% | 998.8 hPa | - | 1.34 m/s, 135° | - | - |
| 1788088233 | 27.22° C | 75% | 998.8 hPa | - | 0.45 m/s, 135° | - | - |
| 1788087333 | 27.22° C | 76% | 998.6 hPa | - | 0.89 m/s, 135° | - | - |
| 1788086432 | 27.22° C | 76% | 998.6 hPa | - | 0.45 m/s, 180° | - | - |
| 1788085533 | 27.78° C | 81% | 998.5 hPa | - | 0.45 m/s, 225° | - | - |
| 1788084633 | 27.78° C | 80% | 998.5 hPa | - | 1.34 m/s, 315° | - | - |
| 1788081031 | 27.78° C | 81% | 998.1 hPa | - | 0 m/s | - | - |
| 1788077433 | 28.33° C | 80% | 998.3 hPa | - | 1.79 m/s, 135° | - | - |
| 1788076533 | 28.33° C | 81% | 998.4 hPa | - | 1.79 m/s, 135° | - | - |
| 1788075632 | 28.89° C | 80% | 998.4 hPa | - | 1.34 m/s, 135° | - | - |
| 1788074733 | 28.89° C | 80% | 998.5 hPa | - | 1.79 m/s, 135° | - | - |
| 1788073833 | 28.89° C | 82% | 998.6 hPa | - | 2.24 m/s, 135° | - | - |
| 1788072932 | 28.33° C | 82% | 998.7 hPa | - | 2.24 m/s, 135° | - | - |
| 1788072034 | 28.33° C | 81% | 998.7 hPa | - | 2.68 m/s, 135° | - | - |
* Rain since midnight (hover to see other rain measurements)
** Current wind speed in m/s (hover to see current wind gust speed)